• In Germany
  • List of Countries
  • For 7 days
  • Water Temperature
  • Satellite Maps
  • Weather Map
  • Weather Widgets
  • user-avatar
    Login

    Hourly Weather São Paulo

    Today, 23 June, Saturday

    Time Temperature Precipitation Wind Pressure Humidity
    00:00 +18°C° 0 mm 1 mps 701 mmHg 79%
    01:00 +18°C° 0 mm 1 mps 701 mmHg 79%
    02:00 +18°C° 0 mm 1 mps 701 mmHg 79%
    03:00 +16°C° 0 mm 1 mps 701 mmHg 79%
    04:00 +16°C° 0 mm 1 mps 700 mmHg 79%
    05:00 +16°C° 0 mm 1 mps 700 mmHg 78%
    06:00 +16°C° 0 mm 1 mps 700 mmHg 78%
    07:00 +18°C° 0 mm 1 mps 701 mmHg 72%
    08:00 +20°C° 0 mm 1 mps 701 mmHg 67%
    09:00 +21°C° 0 mm 1 mps 702 mmHg 61%
    10:00 +23°C° 0 mm 2 mps 702 mmHg 56%
    11:00 +25°C° 0 mm 2 mps 702 mmHg 50%
    12:00 +26°C° 0 mm 3 mps 702 mmHg 45%
    13:00 +27°C° 0 mm 3 mps 702 mmHg 45%
    14:00 +27°C° 0 mm 3 mps 701 mmHg 45%
    15:00 +27°C° 0 mm 3 mps 701 mmHg 45%
    16:00 +25°C° 0 mm 3 mps 701 mmHg 52%
    17:00 +23°C° 0 mm 2 mps 701 mmHg 59%
    18:00 +21°C° 0 mm 2 mps 700 mmHg 66%
    19:00 +21°C° 0 mm 1 mps 701 mmHg 68%
    20:00 +21°C° 0 mm 1 mps 701 mmHg 71%
    21:00 +20°C° 0 mm 1 mps 701 mmHg 73%
    22:00 +20°C° 0 mm 1 mps 701 mmHg 74%
    23:00 +20°C° 0 mm 1 mps 702 mmHg 74%

    Tomorrow, 24 June, Sunday

    Time Temperature Precipitation Wind Pressure Humidity
    00:00 +19°C° 0 mm 1 mps 702 mmHg 75%
    01:00 +19°C° 0 mm 1 mps 702 mmHg 75%
    02:00 +18°C° 0 mm 2 mps 701 mmHg 75%
    03:00 +18°C° 0 mm 2 mps 701 mmHg 76%
    04:00 +17°C° 0 mm 2 mps 701 mmHg 76%
    05:00 +17°C° 0 mm 2 mps 701 mmHg 76%
    06:00 +17°C° 0 mm 2 mps 701 mmHg 76%
    07:00 +18°C° 0 mm 2 mps 702 mmHg 71%
    08:00 +20°C° 0 mm 2 mps 702 mmHg 66%
    09:00 +21°C° 0 mm 2 mps 703 mmHg 62%
    10:00 +24°C° 0 mm 2 mps 703 mmHg 56%
    11:00 +26°C° 0 mm 2 mps 703 mmHg 49%
    12:00 +27°C° 0 mm 2 mps 703 mmHg 43%
    13:00 +27°C° 0 mm 2 mps 703 mmHg 44%
    14:00 +27°C° 0 mm 2 mps 702 mmHg 46%
    15:00 +26°C° 0 mm 2 mps 702 mmHg 47%
    16:00 +24°C° 0 mm 2 mps 702 mmHg 56%
    17:00 +23°C° 0 mm 2 mps 701 mmHg 64%
    18:00 +20°C° 0 mm 2 mps 701 mmHg 73%
    19:00 +19°C° 0.1 mm 2 mps 702 mmHg 78%
    20:00 +19°C° 0.1 mm 2 mps 702 mmHg 82%
    21:00 +18°C° 0.1 mm 2 mps 703 mmHg 87%
    22:00 +18°C° 0.1 mm 2 mps 702 mmHg 89%
    23:00 +19°C° 0.1 mm 1 mps 702 mmHg 90%

    Day after tomorrow, 25 June, Monday

    Time Temperature Precipitation Wind Pressure Humidity
    00:00 +19°C° 0.1 mm 1 mps 702 mmHg 92%
    01:00 +18°C° 0 mm 1 mps 702 mmHg 92%
    02:00 +18°C° 0 mm 1 mps 702 mmHg 92%
    03:00 +18°C° 0 mm 1 mps 701 mmHg 92%
    04:00 +18°C° 0 mm 1 mps 701 mmHg 91%
    05:00 +16°C° 0 mm 1 mps 701 mmHg 90%
    06:00 +16°C° 0 mm 1 mps 701 mmHg 90%
    07:00 +18°C° 0 mm 1 mps 701 mmHg 83%
    08:00 +20°C° 0 mm 1 mps 702 mmHg 77%
    09:00 +21°C° 0 mm 1 mps 702 mmHg 71%
    10:00 +23°C° 0 mm 2 mps 702 mmHg 63%
    11:00 +25°C° 0 mm 2 mps 702 mmHg 54%
    12:00 +26°C° 0 mm 3 mps 702 mmHg 45%
    13:00 +26°C° 0 mm 3 mps 702 mmHg 45%
    14:00 +26°C° 0 mm 3 mps 701 mmHg 46%
    15:00 +26°C° 0 mm 3 mps 700 mmHg 46%
    16:00 +25°C° 0 mm 3 mps 700 mmHg 52%
    17:00 +23°C° 0 mm 2 mps 700 mmHg 58%
    18:00 +21°C° 0 mm 2 mps 700 mmHg 64%
    19:00 +20°C° 0 mm 2 mps 700 mmHg 66%
    20:00 +20°C° 0 mm 2 mps 700 mmHg 67%
    21:00 +19°C° 0 mm 2 mps 701 mmHg 69%
    22:00 +19°C° 0 mm 2 mps 701 mmHg 70%
    23:00 +18°C° 0 mm 2 mps 700 mmHg 71%

    26 June, Tuesday

    Time Temperature Precipitation Wind Pressure Humidity
    00:00 +18°C° 0 mm 2 mps 700 mmHg 72%
    01:00 +18°C° 0 mm 2 mps 700 mmHg 73%
    02:00 +18°C° 0 mm 2 mps 700 mmHg 73%
    03:00 +17°C° 0 mm 2 mps 699 mmHg 74%
    04:00 +17°C° 0 mm 2 mps 699 mmHg 74%
    05:00 +17°C° 0 mm 2 mps 699 mmHg 74%
    06:00 +17°C° 0 mm 2 mps 700 mmHg 74%
    07:00 +18°C° 0 mm 2 mps 700 mmHg 70%
    08:00 +20°C° 0 mm 2 mps 701 mmHg 65%
    09:00 +21°C° 0 mm 3 mps 701 mmHg 60%
    10:00 +24°C° 0 mm 3 mps 701 mmHg 54%
    11:00 +25°C° 0 mm 3 mps 701 mmHg 48%
    12:00 +27°C° 0 mm 3 mps 701 mmHg 41%
    13:00 +27°C° 0 mm 3 mps 701 mmHg 42%
    14:00 +27°C° 0 mm 3 mps 700 mmHg 43%
    15:00 +27°C° 0 mm 3 mps 700 mmHg 43%
    16:00 +25°C° 0 mm 2 mps 700 mmHg 50%
    17:00 +23°C° 0 mm 1 mps 700 mmHg 57%
    18:00 +20°C° 0 mm 0 mps 700 mmHg 64%
    19:00 +21°C° 0 mm 1 mps 700 mmHg 65%
    20:00 +21°C° 0 mm 1 mps 700 mmHg 67%
    21:00 +20°C° 0 mm 1 mps 701 mmHg 68%
    22:00 +20°C° 0 mm 1 mps 701 mmHg 69%
    23:00 +19°C° 0 mm 1 mps 700 mmHg 69%

    27 June, Wednesday

    Time Temperature Precipitation Wind Pressure Humidity
    00:00 +19°C° 0 mm 1 mps 700 mmHg 70%
    01:00 +19°C° 0 mm 1 mps 700 mmHg 71%
    02:00 +19°C° 0 mm 1 mps 700 mmHg 71%
    03:00 +18°C° 0 mm 1 mps 700 mmHg 72%
    04:00 +18°C° 0 mm 1 mps 700 mmHg 72%
    05:00 +18°C° 0 mm 1 mps 700 mmHg 72%
    06:00 +18°C° 0 mm 1 mps 700 mmHg 73%
    07:00 +19°C° 0 mm 1 mps 701 mmHg 68%
    08:00 +20°C° 0 mm 2 mps 701 mmHg 64%
    09:00 +21°C° 0 mm 2 mps 702 mmHg 59%
    10:00 +24°C° 0 mm 2 mps 702 mmHg 54%
    11:00 +26°C° 0 mm 3 mps 702 mmHg 48%
    12:00 +27°C° 0 mm 3 mps 702 mmHg 43%
    13:00 +27°C° 0 mm 3 mps 702 mmHg 43%
    14:00 +27°C° 0 mm 3 mps 701 mmHg 44%
    15:00 +27°C° 0 mm 3 mps 701 mmHg 44%
    16:00 +25°C° 0 mm 2 mps 701 mmHg 52%
    17:00 +24°C° 0 mm 2 mps 701 mmHg 59%
    18:00 +22°C° 0 mm 1 mps 701 mmHg 66%
    19:00 +22°C° 0.1 mm 1 mps 701 mmHg 68%
    20:00 +21°C° 0.1 mm 1 mps 701 mmHg 70%
    21:00 +18°C° 0.1 mm 0 mps 702 mmHg 72%
    22:00 +20°C° 0.1 mm 1 mps 702 mmHg 72%
    23:00 +20°C° 0.1 mm 1 mps 702 mmHg 72%

    28 June, Thursday

    Time Temperature Precipitation Wind Pressure Humidity
    00:00 +20°C° 0.1 mm 1 mps 701 mmHg 71%
    01:00 +20°C° 0 mm 1 mps 701 mmHg 71%
    02:00 +19°C° 0 mm 1 mps 701 mmHg 72%
    03:00 +19°C° 0 mm 1 mps 701 mmHg 72%
    04:00 +19°C° 0 mm 1 mps 701 mmHg 72%
    05:00 +19°C° 0 mm 1 mps 701 mmHg 72%
    06:00 +19°C° 0 mm 1 mps 701 mmHg 72%
    07:00 +20°C° 0 mm 1 mps 702 mmHg 68%
    08:00 +21°C° 0 mm 1 mps 702 mmHg 64%
    09:00 +23°C° 0 mm 1 mps 703 mmHg 60%
    10:00 +24°C° 0 mm 1 mps 703 mmHg 55%
    11:00 +26°C° 0 mm 1 mps 703 mmHg 50%
    12:00 +28°C° 0 mm 1 mps 703 mmHg 45%
    13:00 +27°C° 0.1 mm 1 mps 703 mmHg 47%
    14:00 +27°C° 0.1 mm 1 mps 702 mmHg 49%
    15:00 +27°C° 0.1 mm 2 mps 702 mmHg 51%
    16:00 +25°C° 0 mm 2 mps 702 mmHg 58%
    17:00 +23°C° 0 mm 2 mps 701 mmHg 66%
    18:00 +21°C° 0 mm 2 mps 701 mmHg 73%
    19:00 +21°C° 0 mm 1 mps 702 mmHg 75%
    20:00 +20°C° 0 mm 1 mps 702 mmHg 78%
    21:00 +20°C° 0 mm 1 mps 702 mmHg 80%
    22:00 +20°C° 0 mm 1 mps 702 mmHg 80%
    23:00 +19°C° 0 mm 1 mps 702 mmHg 81%
    Show more